Location: Unspecified
(55.7024°N, 37.6611°E)
Time: 23:37:00
(UTC+03:00)

Tiros 1 despin weight - All Passes

Search period start: 17 June 2025 00:00
Search period end: 27 June 2025 00:00
Orbit: 563 x 601 km, 48.2° (Epoch: 16 June)

Date Brightness Start Highest point End Pass type
(mag) Time Alt. Az. Time Alt. Az. Time Alt. Az.
17 Jun - 16:11:42 10° S 16:14:04 15° SSE 16:16:25 10° ESE daylight
17 Jun - 17:50:16 10° SW 17:53:52 27° S 17:57:31 10° ESE daylight
17 Jun - 19:30:17 10° WSW 19:33:55 28° S 19:37:35 10° SE daylight
17 Jun - 21:11:16 10° WSW 21:13:46 15° SSW 21:16:16 10° S daylight
18 Jun - 16:15:33 10° SSW 16:18:30 18° SSE 16:21:27 10° ESE daylight
18 Jun - 17:54:44 10° SW 17:58:25 29° S 18:02:07 10° ESE daylight
18 Jun - 19:34:57 10° WSW 19:38:27 25° SSW 19:41:57 10° SE daylight
18 Jun - 21:16:44 10° SW 21:18:10 11° SW 21:19:36 10° SSW daylight
19 Jun - 16:19:40 10° SSW 16:22:58 22° SSE 16:26:17 10° ESE daylight
19 Jun - 17:59:15 10° WSW 18:02:58 30° S 18:06:41 10° ESE daylight
19 Jun - 19:39:42 10° WSW 19:42:57 21° SSW 19:46:12 10° SSE daylight
20 Jun - 14:45:58 10° S 14:47:43 12° SSE 14:49:28 10° ESE daylight
20 Jun - 16:23:57 10° SW 16:27:28 26° SSE 16:30:59 10° ESE daylight
20 Jun - 18:03:49 10° WSW 18:07:29 29° S 18:11:11 10° SE daylight
20 Jun - 19:44:34 10° WSW 19:47:24 17° SSW 19:50:14 10° SSE daylight
21 Jun - 14:49:29 10° S 14:52:07 16° SSE 14:54:44 10° ESE daylight
21 Jun - 16:28:20 10° SW 16:31:59 28° S 16:35:38 10° ESE daylight
21 Jun - 18:08:26 10° WSW 18:12:01 27° SSW 18:15:36 10° SE daylight
21 Jun - 19:49:40 10° WSW 19:51:49 14° SSW 19:53:57 10° S daylight
22 Jun - 14:53:26 10° SSW 14:56:33 20° SSE 14:59:39 10° ESE daylight
22 Jun - 16:32:48 10° WSW 16:36:30 30° S 16:40:12 10° ESE daylight
22 Jun - 18:13:07 10° WSW 18:16:30 23° SSW 18:19:54 10° SE daylight
23 Jun - 13:20:59 10° SSE 13:21:20 10° SE 13:21:43 10° SE daylight
23 Jun - 14:57:36 10° SW 15:01:00 24° SSE 15:04:25 10° ESE daylight
23 Jun - 16:37:19 10° WSW 16:41:01 30° S 16:44:43 10° ESE daylight
23 Jun - 18:17:52 10° WSW 18:20:58 20° SSW 18:24:03 10° SSE daylight
24 Jun - 13:23:31 10° S 13:25:41 14° SSE 13:27:51 10° ESE daylight
24 Jun - 15:01:55 10° SW 15:05:29 27° SSE 15:09:04 10° ESE daylight
24 Jun - 16:41:53 10° WSW 16:45:31 28° S 16:49:10 10° SE daylight
24 Jun - 18:22:47 10° WSW 18:25:22 16° SSW 18:27:58 10° S daylight
25 Jun - 13:27:14 10° SSW 13:30:05 18° SSE 13:32:56 10° ESE daylight
25 Jun - 15:06:18 10° SW 15:09:59 29° S 15:13:39 10° ESE daylight
25 Jun - 16:46:30 10° WSW 16:50:00 25° SSW 16:53:31 10° SE daylight
25 Jun - 18:28:04 10° WSW 18:29:45 12° SSW 18:31:26 10° S daylight
26 Jun - 13:31:15 10° SSW 13:34:30 21° SSE 13:37:45 10° ESE daylight
26 Jun - 15:10:46 10° WSW 15:14:29 30° S 15:18:11 10° ESE daylight
26 Jun - 16:51:10 10° WSW 16:54:28 22° SSW 16:57:45 10° SSE daylight
